| time (UTC) | temp C | wind direction | speed KPH | gust KPH | rain 1hr cm | rain 24hr cm | rain mn cm | humidity % | barometer mb |
| 20260510214605 | 18 | 310 | 0.0 | 0.0 | 0.00 | 0.08 | 0.08 | 84 | 1011.7 |
| 20260510213555 | 19 | 310 | 0.0 | 0.0 | 0.00 | 0.08 | 0.08 | 83 | 1011.7 |
| 20260510212553 | 19 | 310 | 0.0 | 0.0 | 0.00 | 0.08 | 0.08 | 85 | 1011.7 |
| 20260510211550 | 19 | 310 | 0.0 | 1.6 | 0.00 | 0.08 | 0.08 | 82 | 1012.0 |
| 20260510210524 | 20 | 312 | 1.6 | 11.3 | 0.00 | 0.05 | 0.05 | 78 | 1012.5 |
| 20260510205536 | 21 | 281 | 3.2 | 11.3 | 0.00 | 0.05 | 0.05 | 78 | 1012.1 |
| 20260510204511 | 21 | 355 | 0.0 | 1.6 | 0.00 | 0.05 | 0.05 | 78 | 1011.8 |
| 20260510203504 | 21 | 355 | 0.0 | 0.0 | 0.00 | 0.05 | 0.05 | 77 | 1011.3 |
| 20260510202501 | 22 | 355 | 0.0 | 0.0 | 0.00 | 0.05 | 0.05 | 73 | 1010.9 |
| 20260510201517 | 22 | 355 | 0.0 | 1.6 | 0.00 | 0.05 | 0.05 | 74 | 1011.0 |
| 20260510200536 | 23 | 355 | 0.0 | 0.0 | 0.00 | 0.03 | 0.03 | 65 | 1011.0 |
| 20260510195554 | 24 | 355 | 0.0 | 4.8 | 0.00 | 0.03 | 0.03 | 61 | 1011.1 |
| 20260510194530 | 26 | 241 | 0.0 | 4.8 | 0.00 | 0.00 | 0.00 | 49 | 1011.1 |
| 20260510193503 | 26 | 236 | 0.0 | 0.0 | 0.00 | 0.00 | 0.00 | 46 | 1011.0 |
| 20260510192521 | 27 | 236 | 0.0 | 0.0 | 0.00 | 0.00 | 0.00 | 41 | 1011.1 |
| 20260510191453 | 27 | 236 | 0.0 | 0.0 | 0.00 | 0.00 | 0.00 | 39 | 1011.2 |
| 20260510185324 | 28 | 236 | 0.0 | 4.8 | 0.00 | 0.00 | 0.00 | 38 | 1011.3 |
| 20260510184335 | 29 | 236 | 0.0 | 0.0 | 0.00 | 0.00 | 0.00 | 36 | 1011.3 |
| 20260510183301 | 29 | 278 | 3.2 | 11.3 | 0.00 | 0.00 | 0.00 | 35 | 1011.3 |
| 20260510182237 | 30 | 219 | 3.2 | 12.9 | 0.00 | 0.00 | 0.00 | 34 | 1011.3 |
| 20260510181243 | 30 | 236 | 4.8 | 14.5 | 0.00 | 0.00 | 0.00 | 34 | 1011.4 |
| 20260510180235 | 30 | 256 | 4.8 | 17.7 | 0.00 | 0.00 | 0.00 | 35 | 1011.6 |
| 20260510175240 | 30 | 259 | 3.2 | 17.7 | 0.00 | 0.00 | 0.00 | 33 | 1011.7 |
| 20260510171945 | 31 | 323 | 4.8 | 17.7 | 0.00 | 0.00 | 0.00 | 34 | 1012.0 |
| 20260510170955 | 30 | 251 | 4.8 | 14.5 | 0.00 | 0.00 | 0.00 | 34 | 1012.1 |
| 20260510165934 | 30 | 282 | 3.2 | 12.9 | 0.00 | 0.00 | 0.00 | 34 | 1012.1 |
| 20260510163822 | 30 | 323 | 3.2 | 8.0 | 0.00 | 0.00 | 0.00 | 36 | 1012.3 |
| 20260510162831 | 29 | 242 | 1.6 | 16.1 | 0.00 | 0.00 | 0.00 | 36 | 1012.3 |
| 20260510161823 | 29 | 242 | 3.2 | 16.1 | 0.00 | 0.00 | 0.00 | 36 | 1012.4 |
| 20260510155738 | 28 | 298 | 3.2 | 9.7 | 0.00 | 0.00 | 0.00 | 39 | 1012.5 |
| 20260510154711 | 28 | 252 | 0.0 | 8.0 | 0.00 | 0.00 | 0.00 | 40 | 1012.6 |
| 20260510153722 | 28 | 242 | 0.0 | 8.0 | 0.00 | 0.00 | 0.00 | 38 | 1012.5 |
| 20260510152710 | 27 | 287 | 0.0 | 6.4 | 0.00 | 0.00 | 0.00 | 41 | 1012.6 |
| 20260510151648 | 27 | 312 | 3.2 | 14.5 | 0.00 | 0.00 | 0.00 | 42 | 1012.6 |
| 20260510145436 | 28 | 309 | 3.2 | 12.9 | 0.00 | 0.00 | 0.00 | 41 | 1012.4 |
| 20260510142208 | 27 | 327 | 3.2 | 16.1 | 0.00 | 0.00 | 0.00 | 41 | 1011.9 |
| 20260510141216 | 26 | 280 | 1.6 | 16.1 | 0.00 | 0.00 | 0.00 | 42 | 1011.9 |
| 20260510140157 | 26 | 227 | 1.6 | 9.7 | 0.00 | 0.00 | 0.00 | 44 | 1012.0 |
| 20260510135139 | 25 | 293 | 0.0 | 0.0 | 0.00 | 0.00 | 0.00 | 53 | 1012.0 |
| 20260510134150 | 25 | 293 | 0.0 | 1.6 | 0.00 | 0.00 | 0.00 | 53 | 1012.2 |
| 20260510132041 | 23 | 293 | 0.0 | 0.0 | 0.00 | 0.00 | 0.00 | 56 | 1012.1 |
| 20260510131053 | 22 | 293 | 0.0 | 1.6 | 0.00 | 0.00 | 0.00 | 60 | 1012.1 |
| 20260510130029 | 21 | 293 | 0.0 | 1.6 | 0.00 | 0.00 | 0.00 | 67 | 1012.1 |
| 20260510124959 | 20 | 293 | 0.0 | 0.0 | 0.00 | 0.00 | 0.00 | 73 | 1012.3 |
| 20260510123946 | 19 | 293 | 0.0 | 0.0 | 0.00 | 0.00 | 0.00 | 75 | 1012.4 |
| 20260510122943 | 17 | 293 | 0.0 | 0.0 | 0.00 | 0.00 | 0.00 | 80 | 1012.5 |
| 20260510121931 | 17 | 297 | 0.0 | 0.0 | 0.00 | 0.00 | 0.00 | 82 | 1012.4 |
| 20260510115751 | 15 | 297 | 0.0 | 0.0 | 0.00 | 0.00 | 0.00 | 87 | 1012.3 |
| 20260510113605 | 13 | 297 | 0.0 | 0.0 | 0.00 | 0.00 | 0.00 | 92 | 1012.0 |
| 20260510112622 | 12 | 297 | 0.0 | 0.0 | 0.00 | 0.00 | 0.00 | 94 | 1011.8 |
| 20260510111626 | 12 | 297 | 0.0 | 0.0 | 0.00 | 0.00 | 0.00 | 94 | 1011.6 |
| 20260510110602 | 12 | 297 | 0.0 | 0.0 | 0.00 | 0.00 | 0.00 | 94 | 1011.4 |
| 20260510105530 | 11 | 297 | 0.0 | 0.0 | 0.00 | 0.00 | 0.00 | 93 | 1011.2 |
| 20260510104530 | 11 | 197 | 0.0 | 0.0 | 0.00 | 0.00 | 0.00 | 93 | 1011.0 |
| 20260510103508 | 11 | 197 | 0.0 | 0.0 | 0.00 | 0.00 | 0.00 | 93 | 1010.9 |
| 20260510102506 | 11 | 197 | 0.0 | 0.0 | 0.00 | 0.00 | 0.00 | 93 | 1010.7 |
| 20260510100358 | 11 | 197 | 0.0 | 0.0 | 0.00 | 0.00 | 0.00 | 93 | 1010.4 |
| 20260510095355 | 11 | 197 | 0.0 | 0.0 | 0.00 | 0.00 | 0.00 | 92 | 1010.4 |
| 20260510093253 | 11 | 197 | 0.0 | 0.0 | 0.00 | 0.00 | 0.00 | 92 | 1010.4 |
| 20260510092317 | 11 | 197 | 0.0 | 0.0 | 0.00 | 0.00 | 0.00 | 92 | 1010.4 |
| 20260510091307 | 11 | 197 | 0.0 | 0.0 | 0.00 | 0.00 | 0.00 | 91 | 1010.3 |
| 20260510090322 | 11 | 197 | 0.0 | 0.0 | 0.00 | 0.00 | 0.00 | 91 | 1010.2 |
| 20260510085319 | 11 | 197 | 0.0 | 0.0 | 0.00 | 0.00 | 0.00 | 91 | 1010.2 |
| 20260510083155 | 11 | 197 | 0.0 | 0.0 | 0.00 | 0.00 | 0.00 | 91 | 1010.2 |
| 20260510082210 | 12 | 197 | 0.0 | 0.0 | 0.00 | 0.00 | 0.00 | 91 | 1010.1 |
| 20260510081206 | 12 | 197 | 0.0 | 0.0 | 0.00 | 0.00 | 0.00 | 91 | 1010.0 |
| 20260510080214 | 12 | 197 | 0.0 | 0.0 | 0.00 | 0.00 | 0.00 | 91 | 1009.8 |
| 20260510075154 | 12 | 197 | 0.0 | 0.0 | 0.00 | 0.00 | 0.00 | 90 | 1009.6 |
| 20260510074125 | 12 | 197 | 0.0 | 0.0 | 0.00 | 0.00 | 0.00 | 90 | 1009.6 |
| 20260510073118 | 12 | 197 | 0.0 | 0.0 | 0.00 | 0.00 | 0.00 | 91 | 1009.5 |
| 20260510072129 | 12 | 197 | 0.0 | 0.0 | 0.00 | 0.00 | 0.00 | 90 | 1009.5 |
| 20260510071119 | 12 | 197 | 0.0 | 0.0 | 0.00 | 0.00 | 0.00 | 90 | 1009.2 |
| 20260510070122 | 12 | 197 | 0.0 | 0.0 | 0.00 | 0.00 | 0.00 | 90 | 1009.1 |
| 20260510065109 | 12 | 197 | 0.0 | 0.0 | 0.00 | 0.00 | 0.00 | 90 | 1009.0 |
| 20260510064042 | 12 | 197 | 0.0 | 0.0 | 0.00 | 0.00 | 0.00 | 89 | 1009.0 |
| 20260510063011 | 13 | 197 | 0.0 | 0.0 | 0.00 | 0.00 | 0.00 | 89 | 1008.9 |
| 20260510062025 | 13 | 197 | 0.0 | 0.0 | 0.00 | 0.00 | 0.00 | 89 | 1008.9 |
| 20260510061018 | 13 | 197 | 0.0 | 0.0 | 0.00 | 0.00 | 0.00 | 88 | 1009.1 |
| 20260510055949 | 13 | 197 | 0.0 | 0.0 | 0.00 | 0.00 | 0.00 | 88 | 1008.9 |
| 20260510053746 | 13 | 197 | 0.0 | 0.0 | 0.00 | 0.00 | 0.00 | 87 | 1009.0 |
| 20260510052748 | 14 | 197 | 0.0 | 0.0 | 0.00 | 0.00 | 0.00 | 86 | 1009.1 |
| 20260510051726 | 14 | 197 | 0.0 | 0.0 | 0.00 | 0.00 | 0.00 | 87 | 1009.1 |
| 20260510050736 | 14 | 197 | 0.0 | 0.0 | 0.00 | 0.00 | 0.00 | 86 | 1009.0 |
| 20260510045734 | 14 | 197 | 0.0 | 0.0 | 0.00 | 0.00 | 0.00 | 86 | 1009.0 |
| 20260510044705 | 14 | 197 | 0.0 | 0.0 | 0.00 | 0.00 | 0.00 | 86 | 1008.9 |
| 20260510043714 | 14 | 197 | 0.0 | 1.6 | 0.00 | 0.00 | 0.00 | 85 | 1009.1 |
| 20260510042640 | 15 | 197 | 0.0 | 0.0 | 0.00 | 0.00 | 0.00 | 85 | 1009.1 |
| 20260510041613 | 15 | 197 | 0.0 | 0.0 | 0.00 | 0.00 | 0.00 | 84 | 1009.0 |
| 20260510040602 | 15 | 197 | 0.0 | 1.6 | 0.00 | 0.00 | 0.00 | 84 | 1009.0 |
| 20260510035605 | 15 | 197 | 0.0 | 0.0 | 0.00 | 0.00 | 0.00 | 83 | 1009.0 |
| 20260510032320 | 16 | 197 | 0.0 | 0.0 | 0.00 | 0.00 | 0.00 | 80 | 1008.8 |
| 20260510031312 | 16 | 197 | 0.0 | 0.0 | 0.00 | 0.00 | 0.00 | 80 | 1008.8 |
| 20260510030331 | 16 | 197 | 0.0 | 0.0 | 0.00 | 0.00 | 0.00 | 79 | 1008.8 |
| 20260510025352 | 16 | 197 | 0.0 | 0.0 | 0.00 | 0.00 | 0.00 | 78 | 1008.7 |
| 20260510024319 | 17 | 197 | 0.0 | 0.0 | 0.00 | 0.00 | 0.00 | 77 | 1008.6 |
| 20260510023304 | 17 | 197 | 0.0 | 0.0 | 0.00 | 0.00 | 0.00 | 76 | 1008.5 |
| 20260510022312 | 17 | 197 | 0.0 | 0.0 | 0.00 | 0.00 | 0.00 | 75 | 1008.5 |
| 20260510021239 | 17 | 197 | 0.0 | 0.0 | 0.00 | 0.00 | 0.00 | 75 | 1008.4 |
| 20260510020247 | 17 | 197 | 0.0 | 0.0 | 0.00 | 0.00 | 0.00 | 74 | 1008.3 |
| 20260510015222 | 17 | 197 | 0.0 | 0.0 | 0.00 | 0.00 | 0.00 | 73 | 1008.3 |
| 20260510014228 | 17 | 197 | 0.0 | 0.0 | 0.00 | 0.00 | 0.00 | 73 | 1008.2 |
| 20260510013216 | 18 | 197 | 0.0 | 0.0 | 0.00 | 0.00 | 0.00 | 72 | 1008.1 |
| 20260510012202 | 18 | 197 | 0.0 | 0.0 | 0.00 | 0.00 | 0.00 | 71 | 1007.8 |
| 20260510011211 | 18 | 197 | 0.0 | 0.0 | 0.00 | 0.00 | 0.00 | 70 | 1007.6 |
| 20260510010201 | 18 | 197 | 0.0 | 0.0 | 0.00 | 0.00 | 0.00 | 69 | 1007.5 |
| 20260510005132 | 19 | 197 | 0.0 | 0.0 | 0.00 | 0.00 | 0.00 | 67 | 1007.4 |
| 20260510004153 | 20 | 197 | 0.0 | 0.0 | 0.00 | 0.00 | 0.00 | 66 | 1007.4 |
| 20260510003146 | 20 | 197 | 0.0 | 0.0 | 0.00 | 0.00 | 0.00 | 63 | 1007.3 |
| 20260510002158 | 21 | 197 | 0.0 | 0.0 | 0.00 | 0.00 | 0.00 | 62 | 1007.2 |
| 20260510001142 | 21 | 197 | 0.0 | 0.0 | 0.00 | 0.00 | 0.00 | 60 | 1007.2 |
| 20260509235006 | 22 | 197 | 0.0 | 0.0 | 0.00 | 0.00 | 0.00 | 56 | 1007.0 |
| 20260509232838 | 22 | 197 | 0.0 | 0.0 | 0.00 | 0.00 | 0.00 | 53 | 1006.9 |
| 20260509231902 | 22 | 197 | 0.0 | 4.8 | 0.00 | 0.00 | 0.00 | 53 | 1006.9 |
| 20260509230847 | 22 | 197 | 0.0 | 8.0 | 0.00 | 0.00 | 0.00 | 52 | 1006.9 |
| 20260509224717 | 23 | 194 | 0.0 | 8.0 | 0.00 | 0.00 | 0.00 | 53 | 1006.9 |
| 20260509223742 | 23 | 158 | 1.6 | 6.4 | 0.00 | 0.00 | 0.00 | 51 | 1006.9 |
| 20260509221638 | 23 | 145 | 3.2 | 11.3 | 0.00 | 0.00 | 0.00 | 51 | 1006.9 |
| 20260509220610 | 24 | 171 | 1.6 | 8.0 | 0.00 | 0.00 | 0.00 | 49 | 1006.9 |
| 20260509215624 | 23 | 284 | 0.0 | 9.7 | 0.00 | 0.00 | 0.00 | 49 | 1006.8 |